[[{"header":{"parameterUnit":"m.s-1","parameterCategory":1,"la1":30.2991,"la2":30.254,"lo1":-89.0895,"lo2":-89.0444,"dy":0.0017,"dx":0.0017,"nx":28,"ny":28,"refTime":"2024-10-11T21:00:00:Z","depth":0,"parameterNumber":2,"parameterNumberName":"U-component_of_WINDS"},"data":[0,0,0,0,0,0,0,0,0,0,0,0,0,0,0,0,0,0,0,0,0,0,0,0,0,0,0,0,0,0,0,0,0,0,0,0,0,0,0,0,0,0,0,0,0,0,0,0,0,0,0,0,0,0,0,0,0,0,0.1357,0.1357,0,0.1336,0.1335,0.1335,0.133,0.1331,0.1331,0.1331,0.1308,0.1307,0.1306,0,0,0,0,0,0,0,0,0,0,0,0,0,0.1393,0.1392,0.1357,0.1357,0.1357,0.1336,0.1335,0.1335,0.133,0.1331,0.1331,0.1331,0.1308,0.1307,0.1306,0,0,0,0,0,0,0,0,0,0,0,0,0,0.1375,0.1392,0.1357,0.1352,0.1351,0.1336,0.1335,0.1335,0.133,0.1331,0.1331,0.1331,0.1308,0.1307,0.1306,0.1294,0,0,0.1302,0.1302,0,0,0,0,0,0,0,0,0.1376,0.1374,0.1353,0.1352,0.1351,0.1336,0.1339,0.1321,0.133,0.1338,0.1331,0.1331,0.1317,0.1315,0.131,0.1293,0.1292,0.1302,0.1302,0.1301,0.1301,0,0,0,0,0,0,0,0.1377,0.1374,0.1349,0.1353,0.1352,0.135,0.1348,0.1336,0.1326,0.1338,0.1337,0.1335,0.1316,0.1311,0.131,0.1292,0.1302,0.1301,0.1301,0.13,0.1262,0.1261,0,0,0,0,0,0,0.138,0.1376,0.1349,0.1348,0.1365,0.1349,0.1347,0.1341,0.1326,0.1325,0.1335,0.1335,0.1313,0.1311,0.1309,0.1293,0.1301,0.13,0.1299,0.1262,0.1261,0.1261,0,0,0,0,0,0,0.138,0.1377,0.135,0.1362,0.1358,0.1348,0.1342,0.134,0.1335,0.1324,0.1322,0.1331,0.1313,0.1311,0.1297,0.1292,0.13,0.1298,0.1262,0.1262,0.1261,0.1262,0,0,0,0,0,0,0.1381,0.1378,0.1373,0.1362,0.1357,0.134,0.1341,0.1339,0.1333,0.1333,0.1321,0.1319,0.1313,0.1299,0.1296,0.1291,0.1298,0.1263,0.1262,0.1261,0.1262,0.1261,0.1261,0,0,0,0,0,0.1383,0.1375,0.1373,0.137,0.1352,0.1339,0.1337,0.1331,0.1333,0.1328,0.1321,0.1319,0.1293,0.1298,0.1295,0.1289,0.1263,0.1262,0.1261,0.1263,0.1262,0.1261,0,0,0,0,0,0,0.1386,0.1373,0.1371,0.1359,0.135,0.1339,0.1333,0.133,0.1321,0.1321,0.1314,0.1311,0.1298,0.1292,0.1297,0.1275,0.1278,0.1277,0.128,0.1279,0.1278,0.128,0.1297,0,0,0,0,0,0.1385,0.1377,0.1365,0.1356,0.1351,0.1343,0.1337,0.1333,0.1324,0.132,0.1312,0.1302,0.1292,0.1285,0.1275,0.1261,0.1258,0.1255,0.1255,0.1254,0.1253,0.1244,0.1242,0.1259,0.1259,0.1259,0,0,0.1384,0.1376,0.1371,0.1356,0.1349,0.1339,0.134,0.133,0.1322,0.1318,0.1305,0.1299,0.1288,0.1274,0.1267,0.1268,0.1247,0.1253,0.1253,0.1252,0.1243,0.1241,0.124,0.1258,0.1258,0.1258,0,0,0.1376,0.137,0.136,0.1353,0.1342,0.1336,0.1334,0.1322,0.1317,0.1304,0.1301,0.1291,0.1274,0.1266,0.1259,0.1247,0.1244,0.1244,0.124,0.1231,0.123,0.1229,0.1223,0.1222,0.1243,0.1243,0.1243,0,0.1376,0.1362,0.1356,0.1346,0.1339,0.1335,0.1325,0.1318,0.1304,0.1299,0.13,0.1277,0.1269,0.1253,0.125,0.1245,0.1242,0.1245,0.1231,0.1229,0.1228,0.1223,0.1221,0.1242,0.1242,0.1242,0.1242,0,0.1361,0.1351,0.1345,0.1332,0.1324,0.1315,0.1306,0.1299,0.1296,0.1289,0.1275,0.1266,0.1253,0.1249,0.1245,0.1231,0.1232,0.1232,0.1234,0.1226,0.1222,0.122,0.1242,0.1242,0.1242,0.1242,0,0,0.1356,0.1339,0.1337,0.133,0.1317,0.1309,0.1298,0.1286,0.1279,0.127,0.126,0.1244,0.1244,0.1236,0.1232,0.1224,0.1214,0.1225,0.1224,0.1222,0.1197,0.1197,0.1195,0.1212,0.1212,0.1211,0.1197,0,0.1347,0.1328,0.1322,0.1306,0.1296,0.1291,0.1282,0.1272,0.1265,0.1256,0.1248,0.1237,0.1238,0.1233,0.1225,0.1217,0.1208,0.1218,0.1202,0.1202,0.1205,0.1192,0.1192,0.118,0.1195,0.1195,0.1195,0,0.1333,0.1323,0.1306,0.1293,0.1289,0.1281,0.1268,0.1259,0.1248,0.1243,0.1234,0.123,0.1217,0.122,0.1202,0.1209,0.1202,0.1196,0.1196,0.1194,0.1198,0.1189,0.1176,0.1173,0.1192,0.1192,0.1192,0,0.133,0.1312,0.13,0.1294,0.1279,0.1273,0.1266,0.1255,0.1248,0.1237,0.1231,0.1219,0.1212,0.1201,0.1193,0.1196,0.1176,0.1178,0.1171,0.1171,0.1167,0.1167,0.1151,0.1163,0.1163,0.1163,0.1163,0,0.132,0.131,0.1298,0.1291,0.1278,0.1271,0.1259,0.1252,0.1241,0.1231,0.1226,0.1217,0.1207,0.1195,0.1189,0.1174,0.1171,0.1167,0.1165,0.1167,0.1167,0.1162,0.1163,0.1162,0.1162,0.1163,0.1163,0,0.1315,0.1307,0.1293,0.1279,0.1275,0.1267,0.1255,0.1247,0.124,0.1227,0.1223,0.1212,0.1198,0.1189,0.1172,0.1167,0.1151,0.115,0.1155,0.1154,0.1147,0.1148,0.1127,0.1123,0.1138,0.1138,0.1138,0,0.1309,0.1301,0.1287,0.128,0.1273,0.1262,0.1254,0.1246,0.1238,0.1223,0.1216,0.1202,0.1191,0.1169,0.1159,0.1145,0.1143,0.1137,0.1141,0.1143,0.1142,0.1142,0.1141,0.1136,0.1136,0.1136,0.1136,0,0.1299,0.1295,0.1285,0.1272,0.1263,0.1253,0.1242,0.1237,0.1226,0.1217,0.1203,0.1194,0.1176,0.1162,0.1147,0.1139,0.1135,0.1134,0.1132,0.1134,0.1137,0.1134,0.1153,0.1135,0.1135,0.1135,0.1135,0.1135,0.1293,0.1285,0.1274,0.1261,0.1253,0.1243,0.1234,0.1225,0.1214,0.1199,0.1194,0.1179,0.1166,0.1146,0.1138,0.1125,0.1126,0.1122,0.1121,0.112,0.112,0.1139,0.1123,0.1123,0.1123,0.1123,0.1123,0,0.1283,0.1274,0.1263,0.1249,0.1239,0.1236,0.1224,0.1216,0.1203,0.1192,0.118,0.1163,0.1149,0.1137,0.1122,0.1115,0.1112,0.1111,0.1111,0.1109,0.1121,0.1124,0.1113,0.1113,0.1113,0.1113,0.1113,0.1113,0.1276,0.1262,0.1257,0.1238,0.123,0.1216,0.1209,0.1199,0.119,0.1171,0.116,0.1152,0.114,0.1124,0.111,0.1107,0.1101,0.11,0.1096,0.1107,0.1108,0.1109,0.1113,0.1099,0.1099,0.1085,0.1085,0.1085]},{"header":{"parameterUnit":"m.s-1","parameterCategory":1,"la1":30.2991,"la2":30.254,"lo1":-89.0895,"lo2":-89.0444,"dy":0.0017,"dx":0.0017,"nx":28,"ny":28,"refTime":"2024-10-11T21:00:00:Z","depth":0,"parameterNumber":3,"parameterNumberName":"V-component_of_WINDS"},"data":[0,0,0,0,0,0,0,0,0,0,0,0,0,0,0,0,0,0,0,0,0,0,0,0,0,0,0,0,0,0,0,0,0,0,0,0,0,0,0,0,0,0,0,0,0,0,0,0,0,0,0,0,0,0,0,0,0,0,0.9293,0.9293,0,0.9262,0.9262,0.9261,0.9278,0.9279,0.928,0.9281,0.9246,0.9245,0.9243,0,0,0,0,0,0,0,0,0,0,0,0,0,0.9364,0.9363,0.9293,0.9293,0.9293,0.9262,0.9262,0.9261,0.9278,0.9279,0.928,0.9281,0.9247,0.9245,0.9243,0,0,0,0,0,0,0,0,0,0,0,0,0,0.9333,0.9362,0.9294,0.9298,0.9298,0.9262,0.9262,0.9261,0.9278,0.9279,0.9281,0.9282,0.9248,0.9245,0.9242,0.9201,0,0,0.9235,0.9233,0,0,0,0,0,0,0,0,0.9335,0.933,0.9297,0.9297,0.9297,0.9276,0.9274,0.9241,0.9278,0.9285,0.9281,0.9282,0.9255,0.9252,0.9243,0.9199,0.9198,0.9234,0.9233,0.9232,0.9231,0,0,0,0,0,0,0,0.9337,0.9332,0.9281,0.9297,0.9297,0.93,0.9297,0.9268,0.9263,0.9285,0.9286,0.9282,0.9255,0.9245,0.9242,0.9197,0.9234,0.9232,0.9231,0.923,0.9114,0.9112,0,0,0,0,0,0,0.9339,0.9334,0.9282,0.928,0.932,0.9297,0.9294,0.9281,0.9264,0.9262,0.9281,0.9283,0.9249,0.9245,0.9241,0.9188,0.9232,0.9229,0.9228,0.9115,0.9114,0.9112,0,0,0,0,0,0,0.9341,0.9335,0.9283,0.9307,0.9301,0.9295,0.928,0.928,0.927,0.9261,0.926,0.9272,0.925,0.9245,0.921,0.9187,0.9228,0.9226,0.9117,0.9115,0.9113,0.9084,0,0,0,0,0,0,0.9343,0.9335,0.932,0.9307,0.9299,0.9254,0.9279,0.9278,0.9266,0.9268,0.9252,0.9251,0.9251,0.9214,0.9207,0.9185,0.9224,0.9119,0.9116,0.9113,0.9087,0.9081,0.9076,0,0,0,0,0,0.9345,0.9314,0.9319,0.9313,0.9281,0.9253,0.9248,0.925,0.9264,0.9248,0.9242,0.9251,0.9192,0.921,0.9203,0.9179,0.9121,0.9117,0.9114,0.909,0.9082,0.9076,0,0,0,0,0,0,0.9324,0.9312,0.9318,0.9282,0.9268,0.9256,0.9236,0.9242,0.9224,0.9227,0.9228,0.9224,0.9188,0.918,0.9201,0.9136,0.9158,0.9153,0.9142,0.9135,0.913,0.9131,0.9222,0,0,0,0,0,0.9315,0.9295,0.9285,0.9253,0.9246,0.9242,0.923,0.9232,0.9217,0.9211,0.9203,0.9187,0.9165,0.915,0.9129,0.9087,0.9082,0.9067,0.9061,0.9057,0.9052,0.9025,0.9017,0.9101,0.9101,0.9101,0,0,0.9297,0.9288,0.9274,0.9249,0.9238,0.9215,0.9237,0.9212,0.9194,0.9207,0.9173,0.9166,0.9149,0.911,0.9092,0.9102,0.9028,0.9052,0.9049,0.9046,0.9021,0.9013,0.9006,0.9098,0.9099,0.9099,0,0,0.925,0.9243,0.9214,0.9203,0.9187,0.9184,0.9177,0.9163,0.9159,0.9125,0.9134,0.9112,0.9074,0.9061,0.9049,0.8995,0.9002,0.8988,0.8959,0.8933,0.8927,0.8921,0.8899,0.8891,0.8984,0.8984,0.8984,0,0.9229,0.9195,0.9198,0.9172,0.9159,0.917,0.914,0.9129,0.9107,0.9097,0.911,0.906,0.905,0.9006,0.8992,0.8983,0.8973,0.8989,0.8928,0.8922,0.8916,0.8895,0.8887,0.8982,0.8982,0.8982,0.8983,0,0.9168,0.9144,0.9122,0.91,0.9085,0.9057,0.9054,0.9039,0.9042,0.9037,0.9,0.8988,0.8964,0.8954,0.8957,0.8909,0.8916,0.8928,0.895,0.8907,0.8886,0.8879,0.8979,0.898,0.8981,0.8981,0,0,0.9107,0.9086,0.9078,0.9067,0.9049,0.903,0.9001,0.8978,0.8962,0.8947,0.892,0.8887,0.8898,0.8884,0.8886,0.8864,0.8817,0.8878,0.8878,0.8865,0.876,0.8749,0.874,0.8823,0.8821,0.882,0.8761,0,0.9057,0.9007,0.9008,0.8961,0.8938,0.8947,0.8922,0.8907,0.8902,0.888,0.8873,0.8848,0.8866,0.8857,0.8836,0.8828,0.8796,0.8832,0.8796,0.8795,0.8797,0.873,0.8718,0.8663,0.8753,0.8752,0.8751,0,0.8992,0.8973,0.8924,0.8907,0.8897,0.8875,0.8851,0.8831,0.8814,0.8811,0.8795,0.8799,0.8768,0.8792,0.8746,0.8771,0.8756,0.875,0.8747,0.8742,0.8768,0.872,0.8646,0.8636,0.8739,0.874,0.8741,0,0.8949,0.8912,0.8876,0.8867,0.8848,0.8831,0.8822,0.8806,0.8791,0.877,0.8759,0.8736,0.8722,0.8702,0.8699,0.8717,0.8652,0.8677,0.8647,0.8646,0.8631,0.8631,0.855,0.8626,0.8626,0.8626,0.8626,0,0.8892,0.886,0.8856,0.8834,0.8798,0.8799,0.8763,0.8756,0.8741,0.8716,0.8724,0.87,0.8699,0.8674,0.8671,0.8632,0.8627,0.8622,0.8621,0.8619,0.8619,0.8608,0.861,0.8624,0.8625,0.8625,0.8625,0,0.8836,0.8833,0.8795,0.8779,0.8774,0.8748,0.8734,0.8712,0.8707,0.8675,0.8668,0.8659,0.863,0.8625,0.8591,0.8589,0.8541,0.8546,0.8547,0.8547,0.8516,0.8517,0.8422,0.8408,0.8496,0.8495,0.8494,0,0.8799,0.8775,0.8756,0.874,0.873,0.8705,0.8689,0.8689,0.8671,0.8648,0.8628,0.86,0.8577,0.8529,0.8519,0.8492,0.8494,0.8462,0.849,0.8488,0.849,0.849,0.8486,0.8456,0.8455,0.8455,0.8454,0,0.8731,0.873,0.8708,0.8683,0.8664,0.8645,0.8627,0.8613,0.861,0.859,0.856,0.8542,0.8506,0.8477,0.8449,0.8438,0.8444,0.8446,0.8437,0.8434,0.8434,0.843,0.8529,0.8447,0.8448,0.8449,0.8449,0.8449,0.8682,0.8659,0.8642,0.8616,0.8602,0.8584,0.8562,0.8553,0.8529,0.85,0.8501,0.8467,0.8448,0.8412,0.8399,0.8371,0.8381,0.8369,0.8366,0.8362,0.8357,0.844,0.8367,0.8367,0.8367,0.8367,0.8368,0,0.8612,0.8601,0.8577,0.855,0.8529,0.8538,0.8518,0.8498,0.8469,0.8451,0.8428,0.8391,0.8362,0.835,0.832,0.83,0.8302,0.8292,0.8292,0.8289,0.8352,0.8361,0.8291,0.8291,0.8291,0.8291,0.8291,0.8291,0.8573,0.8534,0.8531,0.8485,0.8474,0.8441,0.8428,0.8411,0.8396,0.8356,0.8332,0.8324,0.8307,0.8276,0.8249,0.8246,0.8233,0.8221,0.8219,0.8277,0.8285,0.8292,0.8301,0.8219,0.8219,0.8158,0.8158,0.8157]}]]